[[{"header":{"parameterUnit":"m.s-1","parameterCategory":1,"la1":30.2991,"la2":30.254,"lo1":-89.0895,"lo2":-89.0444,"dy":0.0017,"dx":0.0017,"nx":28,"ny":28,"refTime":"2025-12-21T03:00:00:Z","depth":0,"parameterNumber":2,"parameterNumberName":"U-component_of_WINDS"},"data":[0,0,0,0,0,0,0,0,0,0,0,0,0,0,0,0,0,0,0,0,0,0,0,0,0,0,0,0,0,0,0,0,0,0,0,0,0,0,0,0,0,0,0,0,0,0,0,0,0,0,0,0,0,0,0,0,0,0,-2.1108,-2.1109,0,-2.1192,-2.1193,-2.1194,-2.1162,-2.116,-2.1158,-2.1156,-2.1246,-2.125,-2.1254,0,0,0,0,0,0,0,0,0,0,0,0,0,-2.0923,-2.0927,-2.1108,-2.1109,-2.111,-2.1192,-2.1193,-2.1194,-2.1162,-2.116,-2.1157,-2.1155,-2.1245,-2.125,-2.1255,0,0,0,0,0,0,0,0,0,0,0,0,0,-2.1005,-2.0928,-2.1107,-2.1104,-2.1104,-2.1191,-2.1193,-2.1194,-2.1162,-2.1159,-2.1157,-2.1154,-2.1243,-2.1249,-2.1256,-2.1353,0,0,-2.1275,-2.1278,0,0,0,0,0,0,0,0,-2.1,-2.1012,-2.1103,-2.1104,-2.1105,-2.1163,-2.1161,-2.1248,-2.1163,-2.114,-2.1156,-2.1152,-2.1221,-2.1229,-2.1251,-2.1357,-2.1361,-2.1275,-2.1279,-2.1282,-2.1284,0,0,0,0,0,0,0,-2.0995,-2.1008,-2.1141,-2.1104,-2.1105,-2.1099,-2.1107,-2.1177,-2.1196,-2.1142,-2.114,-2.115,-2.1221,-2.1245,-2.1253,-2.1362,-2.1275,-2.1281,-2.1285,-2.1287,-2.1551,-2.1555,0,0,0,0,0,0,-2.0988,-2.1004,-2.1138,-2.1144,-2.1044,-2.1104,-2.1114,-2.1147,-2.1195,-2.12,-2.1153,-2.1148,-2.1236,-2.1246,-2.1256,-2.1373,-2.1282,-2.1288,-2.1292,-2.1548,-2.1552,-2.1556,0,0,0,0,0,0,-2.0984,-2.1001,-2.1135,-2.1073,-2.109,-2.1111,-2.1149,-2.1151,-2.1175,-2.1203,-2.1207,-2.1174,-2.1234,-2.1247,-2.1329,-2.1375,-2.1291,-2.1296,-2.1544,-2.1549,-2.1554,-2.1606,0,0,0,0,0,0,-2.0979,-2.0999,-2.1036,-2.1074,-2.1093,-2.1205,-2.1152,-2.1154,-2.1185,-2.1181,-2.1224,-2.1228,-2.1233,-2.1319,-2.1335,-2.1382,-2.1301,-2.154,-2.1547,-2.1552,-2.1601,-2.1612,-2.1623,0,0,0,0,0,-2.0973,-2.1048,-2.1038,-2.1054,-2.1139,-2.1208,-2.1219,-2.1221,-2.1189,-2.1226,-2.1244,-2.1227,-2.1368,-2.1328,-2.1345,-2.1395,-2.1537,-2.1545,-2.1552,-2.1596,-2.161,-2.1622,0,0,0,0,0,0,-2.1017,-2.1053,-2.1042,-2.1132,-2.1167,-2.1202,-2.1249,-2.1236,-2.1282,-2.1276,-2.1278,-2.1289,-2.1372,-2.1392,-2.1347,-2.1492,-2.1448,-2.1459,-2.1475,-2.1489,-2.15,-2.1493,-2.1307,0,0,0,0,0,-2.1037,-2.1088,-2.1118,-2.1195,-2.1213,-2.1228,-2.1258,-2.1257,-2.1293,-2.1308,-2.1333,-2.137,-2.1422,-2.1457,-2.1507,-2.1604,-2.1612,-2.1647,-2.1658,-2.1667,-2.1676,-2.1727,-2.1743,-2.158,-2.1579,-2.1579,0,0,-2.1079,-2.1105,-2.1138,-2.1204,-2.1231,-2.1285,-2.1241,-2.13,-2.1341,-2.1318,-2.1395,-2.1415,-2.1457,-2.1545,-2.1586,-2.1565,-2.1723,-2.1676,-2.1683,-2.1687,-2.1736,-2.1752,-2.1766,-2.1584,-2.1584,-2.1583,0,0,-2.1183,-2.1209,-2.1274,-2.1302,-2.1342,-2.1352,-2.1368,-2.1405,-2.1416,-2.1494,-2.1477,-2.1526,-2.1617,-2.1647,-2.1674,-2.179,-2.1775,-2.1806,-2.1863,-2.1914,-2.1926,-2.1938,-2.1978,-2.1992,-2.1815,-2.1816,-2.1816,0,-2.1231,-2.1311,-2.1311,-2.1371,-2.14,-2.1381,-2.1448,-2.1475,-2.1531,-2.1552,-2.1527,-2.164,-2.1667,-2.1762,-2.179,-2.1813,-2.1831,-2.1801,-2.1924,-2.1936,-2.1946,-2.1985,-2.2,-2.1819,-2.1819,-2.1818,-2.1818,0,-2.1367,-2.1423,-2.1471,-2.1523,-2.1558,-2.1622,-2.1632,-2.1668,-2.1664,-2.1676,-2.1755,-2.1787,-2.1842,-2.1865,-2.1863,-2.196,-2.1945,-2.1923,-2.1879,-2.1965,-2.2001,-2.2016,-2.1824,-2.1823,-2.1822,-2.1821,0,0,-2.1501,-2.1551,-2.1569,-2.1592,-2.1635,-2.1678,-2.1742,-2.1794,-2.1825,-2.1864,-2.1917,-2.1993,-2.1972,-2.2003,-2.2004,-2.2048,-2.2136,-2.202,-2.2021,-2.2039,-2.2245,-2.226,-2.2277,-2.2127,-2.213,-2.2132,-2.2241,0,-2.1608,-2.1716,-2.1718,-2.1818,-2.1869,-2.1851,-2.1906,-2.1939,-2.1952,-2.1999,-2.2014,-2.2068,-2.2036,-2.2055,-2.2098,-2.2116,-2.2177,-2.2108,-2.2176,-2.2179,-2.2165,-2.2296,-2.2314,-2.2415,-2.2255,-2.2257,-2.2259,0,-2.1747,-2.1788,-2.1893,-2.1927,-2.1949,-2.1998,-2.2046,-2.209,-2.2127,-2.2134,-2.2168,-2.2162,-2.2227,-2.2181,-2.2271,-2.2224,-2.2252,-2.2265,-2.2269,-2.2275,-2.2223,-2.2305,-2.2447,-2.2462,-2.2281,-2.228,-2.2278,0,-2.1833,-2.1915,-2.1988,-2.2008,-2.2051,-2.2085,-2.2105,-2.2139,-2.217,-2.2213,-2.2233,-2.2284,-2.2311,-2.2351,-2.2358,-2.2325,-2.2448,-2.2403,-2.2456,-2.2455,-2.2482,-2.248,-2.2629,-2.2502,-2.2502,-2.2501,-2.2501,0,-2.1951,-2.2016,-2.2027,-2.2072,-2.2143,-2.2145,-2.2217,-2.2234,-2.2264,-2.2312,-2.2301,-2.2347,-2.2355,-2.2403,-2.241,-2.2482,-2.2495,-2.2503,-2.2504,-2.2503,-2.2502,-2.2521,-2.2514,-2.2505,-2.2504,-2.2504,-2.2503,0,-2.2059,-2.2069,-2.2147,-2.218,-2.219,-2.2242,-2.227,-2.2314,-2.2326,-2.2387,-2.2402,-2.2421,-2.2477,-2.2488,-2.2555,-2.256,-2.2646,-2.2641,-2.2633,-2.2632,-2.2683,-2.2678,-2.2849,-2.2871,-2.273,-2.2732,-2.2733,0,-2.2134,-2.2182,-2.222,-2.2251,-2.2271,-2.2322,-2.2353,-2.2357,-2.239,-2.2435,-2.2473,-2.2527,-2.2571,-2.2661,-2.2682,-2.2733,-2.2728,-2.2784,-2.2735,-2.2733,-2.2727,-2.2724,-2.2728,-2.2794,-2.2795,-2.2796,-2.2797,0,-2.2264,-2.2266,-2.2311,-2.2357,-2.2395,-2.2432,-2.2467,-2.2494,-2.2502,-2.254,-2.2596,-2.263,-2.2697,-2.2751,-2.2802,-2.2823,-2.2812,-2.2813,-2.2827,-2.2827,-2.2819,-2.2823,-2.2657,-2.2809,-2.2807,-2.2807,-2.2806,-2.2806,-2.2357,-2.2399,-2.2431,-2.2482,-2.2508,-2.2541,-2.2583,-2.2599,-2.2645,-2.2699,-2.2699,-2.276,-2.2796,-2.2862,-2.2887,-2.2936,-2.2918,-2.2939,-2.2945,-2.295,-2.2953,-2.2813,-2.2945,-2.2945,-2.2945,-2.2944,-2.2944,0,-2.2486,-2.2505,-2.2551,-2.26,-2.264,-2.2624,-2.2662,-2.2697,-2.275,-2.2784,-2.2826,-2.289,-2.2942,-2.2967,-2.3018,-2.3052,-2.3048,-2.3066,-2.3063,-2.3068,-2.2967,-2.2948,-2.3068,-2.3068,-2.3068,-2.3068,-2.3068,-2.3068,-2.2557,-2.2627,-2.2633,-2.2716,-2.2736,-2.2794,-2.2817,-2.2848,-2.2874,-2.2946,-2.2988,-2.3003,-2.3033,-2.3087,-2.3134,-2.314,-2.3159,-2.3179,-2.3182,-2.3088,-2.3075,-2.3063,-2.3045,-2.3183,-2.3183,-2.3279,-2.3279,-2.328]},{"header":{"parameterUnit":"m.s-1","parameterCategory":1,"la1":30.2991,"la2":30.254,"lo1":-89.0895,"lo2":-89.0444,"dy":0.0017,"dx":0.0017,"nx":28,"ny":28,"refTime":"2025-12-21T03:00:00:Z","depth":0,"parameterNumber":3,"parameterNumberName":"V-component_of_WINDS"},"data":[0,0,0,0,0,0,0,0,0,0,0,0,0,0,0,0,0,0,0,0,0,0,0,0,0,0,0,0,0,0,0,0,0,0,0,0,0,0,0,0,0,0,0,0,0,0,0,0,0,0,0,0,0,0,0,0,0,0,0.7514,0.7515,0,0.7645,0.7646,0.7648,0.7697,0.7696,0.7696,0.7696,0.7831,0.7835,0.7839,0,0,0,0,0,0,0,0,0,0,0,0,0,0.7308,0.7312,0.7513,0.7515,0.7517,0.7644,0.7646,0.7648,0.7697,0.7696,0.7696,0.7695,0.783,0.7835,0.784,0,0,0,0,0,0,0,0,0,0,0,0,0,0.7414,0.7313,0.7513,0.7556,0.7562,0.7644,0.7646,0.7648,0.7697,0.7696,0.7696,0.7695,0.7828,0.7834,0.784,0.789,0,0,0.7859,0.7861,0,0,0,0,0,0,0,0,0.7408,0.7422,0.7548,0.7554,0.756,0.7654,0.7624,0.7729,0.7697,0.7646,0.7696,0.7695,0.7773,0.7783,0.7809,0.7896,0.7902,0.7859,0.7863,0.7865,0.7867,0,0,0,0,0,0,0,0.7401,0.7416,0.7565,0.755,0.7557,0.757,0.7585,0.7644,0.7711,0.765,0.7654,0.7669,0.7776,0.7803,0.7813,0.7904,0.7859,0.7864,0.7868,0.787,0.8039,0.804,0,0,0,0,0,0,0.7386,0.741,0.7561,0.7569,0.7481,0.7574,0.7591,0.7624,0.7711,0.7723,0.7669,0.7671,0.7794,0.7806,0.7818,0.7883,0.7865,0.7871,0.7874,0.8039,0.804,0.8041,0,0,0,0,0,0,0.7381,0.7399,0.7556,0.7491,0.7512,0.7579,0.7616,0.7627,0.7655,0.7725,0.7737,0.7685,0.7794,0.7809,0.7872,0.7888,0.7874,0.7879,0.8038,0.8039,0.804,0.8011,0,0,0,0,0,0,0.7375,0.7397,0.7415,0.7491,0.7515,0.7607,0.7617,0.763,0.7665,0.7668,0.7743,0.7755,0.7794,0.7862,0.7878,0.7896,0.7884,0.8036,0.8038,0.804,0.8011,0.8011,0.8012,0,0,0,0,0,0.7368,0.7402,0.7416,0.7434,0.754,0.7607,0.7621,0.7665,0.7666,0.7686,0.7731,0.7753,0.7884,0.7868,0.7886,0.7906,0.8036,0.8038,0.804,0.8011,0.8011,0.8012,0,0,0,0,0,0,0.7327,0.7413,0.7429,0.7489,0.7541,0.7615,0.7642,0.7664,0.7717,0.7718,0.7771,0.7788,0.7846,0.7882,0.7864,0.796,0.7961,0.7967,0.7933,0.7934,0.7935,0.7925,0.7889,0,0,0,0,0,0.7325,0.7372,0.7445,0.7491,0.7516,0.7574,0.7605,0.7635,0.7691,0.7713,0.7763,0.7817,0.787,0.7904,0.7957,0.8017,0.8035,0.804,0.804,0.804,0.8044,0.808,0.8083,0.8047,0.8047,0.8047,0,0,0.7322,0.7374,0.7401,0.7484,0.7527,0.7576,0.7592,0.7643,0.768,0.7721,0.7783,0.7821,0.7885,0.7946,0.7976,0.7979,0.8058,0.8042,0.8042,0.8046,0.8082,0.8086,0.8088,0.8049,0.8048,0.8048,0,0,0.734,0.7384,0.7428,0.7471,0.7537,0.7576,0.7586,0.7658,0.7685,0.7748,0.7781,0.7826,0.7917,0.7961,0.7996,0.8033,0.8055,0.8049,0.8051,0.8085,0.8088,0.809,0.8105,0.8109,0.8053,0.8053,0.8053,0,0.7328,0.7401,0.7447,0.7497,0.7533,0.7572,0.7618,0.7658,0.7737,0.7762,0.7764,0.788,0.7925,0.7998,0.8007,0.8034,0.8048,0.804,0.8083,0.8087,0.809,0.8104,0.8109,0.8052,0.8052,0.8052,0.8052,0,0.7383,0.7434,0.7462,0.7538,0.7577,0.7624,0.7678,0.7713,0.7739,0.7778,0.7843,0.7899,0.7965,0.7985,0.8011,0.8062,0.8062,0.8073,0.8076,0.8091,0.8106,0.8111,0.805,0.805,0.8051,0.8051,0,0,0.7379,0.7481,0.749,0.7526,0.7602,0.7642,0.7692,0.7756,0.7785,0.7839,0.7883,0.7959,0.7971,0.801,0.8042,0.8072,0.8099,0.8079,0.8082,0.8082,0.816,0.8152,0.8157,0.8114,0.8115,0.8116,0.8155,0,0.7409,0.7498,0.7541,0.7612,0.7661,0.7699,0.7743,0.7795,0.7833,0.788,0.7923,0.7977,0.7987,0.8011,0.8042,0.8089,0.8115,0.8087,0.8156,0.8158,0.8139,0.8165,0.8156,0.819,0.8161,0.8162,0.8163,0,0.7454,0.7508,0.7583,0.7655,0.7677,0.7715,0.7778,0.7822,0.7883,0.7909,0.7953,0.7984,0.8039,0.8038,0.8115,0.8095,0.8126,0.8153,0.8156,0.8164,0.8161,0.8175,0.8202,0.8207,0.8172,0.8171,0.817,0,0.7445,0.7536,0.7593,0.7623,0.7707,0.7733,0.777,0.7829,0.7866,0.7921,0.7946,0.8007,0.804,0.8088,0.8135,0.813,0.8208,0.8211,0.8233,0.8231,0.8247,0.8246,0.828,0.8266,0.8266,0.8266,0.8266,0,0.7473,0.7518,0.759,0.7626,0.7678,0.7728,0.7778,0.7818,0.7871,0.7916,0.7953,0.7995,0.8055,0.8104,0.8142,0.8201,0.8215,0.8239,0.8248,0.8236,0.8233,0.8257,0.8256,0.8268,0.8267,0.8267,0.8267,0,0.7471,0.7522,0.7587,0.7662,0.7682,0.7717,0.7782,0.7818,0.7859,0.7915,0.7931,0.7995,0.8055,0.8107,0.8186,0.8212,0.8273,0.8284,0.8252,0.8258,0.8277,0.8274,0.8329,0.8339,0.8317,0.8317,0.8317,0,0.7486,0.7522,0.7601,0.7633,0.7669,0.772,0.7758,0.7809,0.7847,0.7919,0.7947,0.801,0.8063,0.8157,0.8211,0.8273,0.8286,0.8301,0.8296,0.8283,0.8288,0.8285,0.829,0.8301,0.8301,0.8301,0.8301,0,0.7508,0.7531,0.7583,0.7644,0.7688,0.7738,0.779,0.7815,0.7876,0.7917,0.7979,0.802,0.8101,0.8163,0.8231,0.827,0.8296,0.8302,0.8311,0.8299,0.8279,0.8291,0.8253,0.8301,0.8301,0.8301,0.8301,0.8301,0.7516,0.755,0.7611,0.7668,0.7712,0.776,0.7798,0.7844,0.7896,0.7966,0.7993,0.8057,0.8118,0.8211,0.8251,0.8302,0.8306,0.8318,0.8321,0.8324,0.8322,0.827,0.8314,0.8314,0.8314,0.8314,0.8315,0,0.754,0.7582,0.7633,0.7705,0.775,0.777,0.7829,0.7866,0.7921,0.7976,0.8027,0.8099,0.816,0.822,0.8284,0.8314,0.8328,0.8329,0.8328,0.8337,0.8314,0.8301,0.8317,0.8317,0.8317,0.8317,0.8317,0.8317,0.7558,0.7617,0.7648,0.773,0.7771,0.7833,0.7865,0.791,0.7954,0.8032,0.8083,0.8121,0.8178,0.8248,0.8305,0.8321,0.8344,0.8342,0.8361,0.8339,0.8338,0.8337,0.8325,0.8346,0.8346,0.838,0.838,0.8381]}]]